Kingsville Naval Air Station Kingsville US
ICAO: KNQI
IATA: NQI
Category: Medium
Scheduled Services: No

Elevation: 50 ft
TransAlt. 18000 ft.

Airport Communications:
APP:119.9
ATIS:27.62
CLNC DEL:32.84
DEP:26.68
GND:35.24
BASE OPS:27.48
PMSV METRO:34.46
TWR:124.1

KNQI Zoom In..

If you have problems with the map follow the link
https://www.worldairports.se/pages/airport.php?
ICAO=KNQI

Runways:

(A) RW 13L length 8000 ft width 200 ft
---- / hdg 127

(B) RW 13R length 8000 ft width 200 ft
ILS 110.90 / hdg 127

(C) RW 17L length 8000 ft width 200 ft
---- / hdg 172

(D) RW 17R length 8000 ft width 200 ft
---- / hdg 172

(E) RW 31L length 8000 ft width 200 ft
---- / hdg 307

(F) RW 31R length 8000 ft width 200 ft
---- / hdg 307

(G) RW 35L length 8000 ft width 200 ft
---- / hdg 352

(H) RW 35R length 8000 ft width 200 ft
---- / hdg 352

Location; KNQI
Day. 24 / Time. 10.56 Zulu
* Altimeter: 30.03
* Temperature: 17° c. 62.6°f.
* Wind from: 070° Speed 04 kn.
Dewpoint: 16° c.
Visibility: 1/2 Statute Miles.
Clouds: Few 1700 ft.
Clouds: Overcast 2300 ft.
Conditions: Fog.

KNQI 241056Z AUTO 07004KT 1/2SM FG FEW017 OVC023 17/16 A3003 RMK AO2 SLP164 T01670161


Wind From 070°
Speed 04 kn.

 
 
jpsmedia.com for Web Design worldairports.se 2019   terms of use